User: anonymous   Login
Location: Unspecified
(0.0000°N, 0.0000°E)
Time: 12:45:16
(UTC+00:00)
Language:

Kosmos-1808 - Orbit

View from above orbital plane
View from above orbital plane
View from above satellite
View from above satellite

Ground track
Ground track

The orbit data is extracted from the following two-line orbital elements,

1 17239U 86100A   18170.13745862  .00000023  00000-0  84278-5 0  9999
2 17239  82.9329 166.8961 0033820  46.9150  23.0431 13.71988751577265
Epoch (UTC): 19 June 2018 03:17:56
Eccentricity: 0.0033820
inclination: 82.9329°
perigee height: 967 km
apogee height: 1017 km
right ascension of ascending node: 166.8961°
argument of perigee: 46.9150°
revolutions per day: 13.71988751
mean anomaly at epoch: 23.0431°
orbit number at epoch: 57726

The dashed part of the orbit path shows where the satellite is in the earth's shadow,  

DLR